• In France
  • List of Countries
  • For 7 days
  • Water Temperature
  • Satellite Maps
  • Weather Map
  • Weather Widgets
  • user-avatar
    Login

    Hourly Weather Urchiab

    Today, 15 October, Monday

    Time Temperature Precipitation Wind Pressure Humidity
    00:00 +7°C° 0 mm 2 mps 661 mmHg 47%
    01:00 +7°C° 0 mm 2 mps 660 mmHg 46%
    02:00 +7°C° 0 mm 2 mps 660 mmHg 44%
    03:00 +7°C° 0 mm 3 mps 660 mmHg 41%
    04:00 +7°C° 0 mm 2 mps 660 mmHg 42%
    05:00 +6°C° 0 mm 2 mps 660 mmHg 42%
    06:00 +6°C° 0 mm 2 mps 660 mmHg 42%
    07:00 +8°C° 0 mm 2 mps 661 mmHg 39%
    08:00 +10°C° 0 mm 2 mps 661 mmHg 37%
    09:00 +12°C° 0 mm 3 mps 662 mmHg 35%
    10:00 +12°C° 0 mm 3 mps 662 mmHg 35%
    11:00 +12°C° 0 mm 3 mps 663 mmHg 36%
    12:00 +13°C° 0 mm 3 mps 663 mmHg 37%
    13:00 +12°C° 0 mm 3 mps 663 mmHg 40%
    14:00 +12°C° 0 mm 3 mps 663 mmHg 44%
    15:00 +12°C° 0 mm 2 mps 663 mmHg 50%
    16:00 +11°C° 0 mm 1 mps 663 mmHg 54%
    17:00 +11°C° 0 mm 1 mps 663 mmHg 58%
    18:00 +10°C° 0 mm 1 mps 663 mmHg 62%
    19:00 +10°C° 0 mm 1 mps 663 mmHg 62%
    20:00 +9°C° 0 mm 1 mps 663 mmHg 61%
    21:00 +9°C° 0 mm 1 mps 663 mmHg 60%
    22:00 +9°C° 0 mm 1 mps 663 mmHg 60%
    23:00 +9°C° 0 mm 1 mps 663 mmHg 60%

    Tomorrow, 16 October, Tuesday

    Time Temperature Precipitation Wind Pressure Humidity
    00:00 +9°C° 0 mm 1 mps 663 mmHg 59%
    01:00 +9°C° 0 mm 1 mps 663 mmHg 60%
    02:00 +9°C° 0 mm 1 mps 663 mmHg 61%
    03:00 +9°C° 0 mm 1 mps 663 mmHg 62%
    04:00 +8°C° 0 mm 1 mps 663 mmHg 63%
    05:00 +8°C° 0 mm 1 mps 663 mmHg 64%
    06:00 +8°C° 0 mm 1 mps 662 mmHg 65%
    07:00 +10°C° 0 mm 1 mps 663 mmHg 61%
    08:00 +12°C° 0 mm 1 mps 664 mmHg 56%
    09:00 +13°C° 0 mm 1 mps 664 mmHg 51%
    10:00 +14°C° 0 mm 2 mps 664 mmHg 51%
    11:00 +15°C° 0 mm 2 mps 665 mmHg 51%
    12:00 +16°C° 0 mm 3 mps 665 mmHg 50%
    13:00 +16°C° 0 mm 3 mps 665 mmHg 52%
    14:00 +16°C° 0 mm 3 mps 664 mmHg 54%
    15:00 +16°C° 0 mm 3 mps 664 mmHg 55%
    16:00 +13°C° 0 mm 3 mps 664 mmHg 64%
    17:00 +12°C° 0 mm 2 mps 664 mmHg 73%
    18:00 +10°C° 0 mm 2 mps 663 mmHg 82%
    19:00 +9°C° 0 mm 2 mps 663 mmHg 83%
    20:00 +9°C° 0 mm 2 mps 663 mmHg 83%
    21:00 +9°C° 0 mm 2 mps 663 mmHg 83%
    22:00 +9°C° 0 mm 2 mps 663 mmHg 82%
    23:00 +9°C° 0 mm 2 mps 663 mmHg 81%

    Day after tomorrow, 17 October, Wednesday

    Time Temperature Precipitation Wind Pressure Humidity
    00:00 +8°C° 0 mm 2 mps 663 mmHg 80%
    01:00 +8°C° 0 mm 2 mps 663 mmHg 79%
    02:00 +8°C° 0 mm 2 mps 663 mmHg 78%
    03:00 +8°C° 0 mm 2 mps 662 mmHg 77%
    04:00 +8°C° 0 mm 2 mps 662 mmHg 76%
    05:00 +8°C° 0 mm 2 mps 662 mmHg 74%
    06:00 +7°C° 0 mm 2 mps 662 mmHg 73%
    07:00 +10°C° 0 mm 2 mps 663 mmHg 65%
    08:00 +13°C° 0 mm 2 mps 663 mmHg 57%
    09:00 +15°C° 0 mm 2 mps 664 mmHg 49%
    10:00 +16°C° 0 mm 3 mps 664 mmHg 47%
    11:00 +17°C° 0 mm 3 mps 664 mmHg 45%
    12:00 +18°C° 0 mm 3 mps 664 mmHg 43%
    13:00 +18°C° 0 mm 3 mps 663 mmHg 46%
    14:00 +17°C° 0 mm 3 mps 663 mmHg 50%
    15:00 +17°C° 0 mm 3 mps 663 mmHg 53%
    16:00 +14°C° 0 mm 3 mps 662 mmHg 63%
    17:00 +14°C° 0 mm 2 mps 662 mmHg 73%
    18:00 +12°C° 0 mm 2 mps 661 mmHg 83%
    19:00 +12°C° 0 mm 2 mps 661 mmHg 81%
    20:00 +10°C° 0 mm 2 mps 661 mmHg 79%
    21:00 +10°C° 0 mm 2 mps 661 mmHg 78%
    22:00 +10°C° 0 mm 2 mps 661 mmHg 75%
    23:00 +10°C° 0 mm 2 mps 661 mmHg 72%

    18 October, Thursday

    Time Temperature Precipitation Wind Pressure Humidity
    00:00 +9°C° 0 mm 2 mps 660 mmHg 69%
    01:00 +9°C° 0 mm 2 mps 660 mmHg 67%
    02:00 +10°C° 0 mm 1 mps 660 mmHg 65%
    03:00 +10°C° 0 mm 1 mps 660 mmHg 63%
    04:00 +9°C° 0 mm 1 mps 660 mmHg 61%
    05:00 +9°C° 0 mm 1 mps 660 mmHg 59%
    06:00 +9°C° 0 mm 1 mps 660 mmHg 57%
    07:00 +11°C° 0 mm 1 mps 660 mmHg 53%
    08:00 +13°C° 0 mm 1 mps 661 mmHg 49%
    09:00 +15°C° 0 mm 1 mps 662 mmHg 45%
    10:00 +16°C° 0 mm 1 mps 662 mmHg 44%
    11:00 +17°C° 0 mm 2 mps 662 mmHg 44%
    12:00 +18°C° 0 mm 2 mps 662 mmHg 43%
    13:00 +17°C° 0 mm 3 mps 662 mmHg 47%
    14:00 +17°C° 0 mm 3 mps 661 mmHg 51%
    15:00 +17°C° 0 mm 3 mps 661 mmHg 55%
    16:00 +15°C° 0 mm 2 mps 661 mmHg 65%
    17:00 +13°C° 0 mm 2 mps 661 mmHg 76%
    18:00 +12°C° 0 mm 1 mps 660 mmHg 86%
    19:00 +12°C° 0 mm 1 mps 660 mmHg 85%
    20:00 +11°C° 0 mm 1 mps 660 mmHg 84%
    21:00 +11°C° 0 mm 1 mps 661 mmHg 82%
    22:00 +11°C° 0 mm 1 mps 660 mmHg 79%
    23:00 +10°C° 0 mm 1 mps 660 mmHg 75%

    19 October, Friday

    Time Temperature Precipitation Wind Pressure Humidity
    00:00 +10°C° 0 mm 1 mps 660 mmHg 72%
    01:00 +9°C° 0 mm 2 mps 660 mmHg 69%
    02:00 +9°C° 0 mm 2 mps 660 mmHg 66%
    03:00 +9°C° 0 mm 2 mps 660 mmHg 64%
    04:00 +8°C° 0 mm 2 mps 660 mmHg 61%
    05:00 +8°C° 0 mm 2 mps 660 mmHg 59%
    06:00 +8°C° 0 mm 2 mps 660 mmHg 56%
    07:00 +10°C° 0 mm 2 mps 660 mmHg 50%
    08:00 +14°C° 0 mm 2 mps 661 mmHg 43%
    09:00 +16°C° 0 mm 1 mps 662 mmHg 36%
    10:00 +17°C° 0 mm 2 mps 662 mmHg 35%
    11:00 +18°C° 0 mm 2 mps 662 mmHg 34%
    12:00 +19°C° 0 mm 3 mps 662 mmHg 33%
    13:00 +18°C° 0 mm 3 mps 662 mmHg 37%
    14:00 +18°C° 0 mm 3 mps 661 mmHg 41%
    15:00 +18°C° 0 mm 3 mps 661 mmHg 45%
    16:00 +16°C° 0 mm 3 mps 661 mmHg 56%
    17:00 +14°C° 0 mm 2 mps 660 mmHg 66%
    18:00 +12°C° 0 mm 2 mps 660 mmHg 76%
    19:00 +12°C° 0 mm 2 mps 660 mmHg 73%
    20:00 +12°C° 0 mm 2 mps 660 mmHg 70%
    21:00 +12°C° 0 mm 2 mps 660 mmHg 68%
    22:00 +10°C° 0 mm 3 mps 660 mmHg 66%
    23:00 +10°C° 0 mm 3 mps 659 mmHg 64%

    20 October, Saturday

    Time Temperature Precipitation Wind Pressure Humidity
    00:00 +10°C° 0 mm 3 mps 659 mmHg 62%
    01:00 +10°C° 0 mm 3 mps 659 mmHg 62%
    02:00 +10°C° 0 mm 3 mps 659 mmHg 62%
    03:00 +9°C° 0 mm 3 mps 658 mmHg 62%
    04:00 +9°C° 0 mm 3 mps 658 mmHg 59%
    05:00 +9°C° 0 mm 3 mps 658 mmHg 57%
    06:00 +9°C° 0 mm 3 mps 658 mmHg 54%
    07:00 +12°C° 0 mm 2 mps 659 mmHg 47%
    08:00 +15°C° 0 mm 2 mps 659 mmHg 39%
    09:00 +17°C° 0 mm 2 mps 660 mmHg 32%
    10:00 +18°C° 0 mm 2 mps 660 mmHg 31%
    11:00 +19°C° 0 mm 2 mps 660 mmHg 30%
    12:00 +20°C° 0 mm 2 mps 660 mmHg 29%
    13:00 +20°C° 0 mm 2 mps 659 mmHg 32%
    14:00 +20°C° 0 mm 2 mps 659 mmHg 36%
    15:00 +19°C° 0 mm 2 mps 659 mmHg 39%
    16:00 +17°C° 0 mm 2 mps 659 mmHg 47%
    17:00 +16°C° 0 mm 1 mps 658 mmHg 55%
    18:00 +14°C° 0 mm 1 mps 658 mmHg 63%
    19:00 +14°C° 0 mm 1 mps 658 mmHg 61%
    20:00 +14°C° 0 mm 1 mps 658 mmHg 60%
    21:00 +14°C° 0 mm 1 mps 658 mmHg 58%
    22:00 +13°C° 0 mm 1 mps 657 mmHg 57%
    23:00 +13°C° 0 mm 1 mps 657 mmHg 57%
    Show more